This is the latest recevied weather packets stored in our database for station/object SP4MAZ-13. If no packets are shown the sender has not sent any weather packets the latest 10 day(s).
| Time | Temp. | Humidity | Pressure | Rain* | Wind** | Luminosity | Snow |
|---|---|---|---|---|---|---|---|
| 1777182247 | 3.89° C | 78% | 2147.4 hPa | - | - | - | - |
| 1777181944 | 3.89° C | 78% | 2147.4 hPa | - | - | - | - |
| 1777181640 | 3.89° C | 80% | 2147.4 hPa | - | - | - | - |
| 1777181337 | 3.89° C | 79% | 2147.4 hPa | - | - | - | - |
| 1777181034 | 3.89° C | 82% | 2147.4 hPa | - | - | - | - |
| 1777180730 | 3.89° C | 83% | 2147.4 hPa | - | - | - | - |
| 1777180426 | 3.33° C | 81% | 2147.4 hPa | - | - | - | - |
| 1777180123 | 3.89° C | 78% | 2147.4 hPa | - | - | - | - |
| 1777179819 | 3.89° C | 82% | 2147.4 hPa | - | - | - | - |
| 1777179516 | 3.89° C | 81% | 2147.4 hPa | - | - | - | - |
| 1777179213 | 3.89° C | 80% | 2147.4 hPa | - | - | - | - |
| 1777178909 | 3.89° C | 82% | 2147.4 hPa | - | - | - | - |
| 1777178606 | 3.33° C | 87% | 2147.4 hPa | - | - | - | - |
| 1777178302 | 3.33° C | 79% | 2147.4 hPa | - | - | - | - |
| 1777177999 | 3.89° C | 77% | 2147.4 hPa | - | - | - | - |
| 1777177696 | 3.33° C | 76% | 2147.4 hPa | - | - | - | - |
| 1777177392 | 3.33° C | 75% | 2147.4 hPa | - | - | - | - |
| 1777177088 | 3.89° C | 76% | 2147.4 hPa | - | - | - | - |
| 1777176785 | 3.89° C | 78% | 2147.4 hPa | - | - | - | - |
| 1777176481 | 3.33° C | 82% | 2147.4 hPa | - | - | - | - |
| 1777176178 | 3.33° C | 82% | 2147.4 hPa | - | - | - | - |
| 1777175874 | 2.78° C | 85% | 2147.4 hPa | - | - | - | - |
| 1777175571 | 2.22° C | 85% | 2147.4 hPa | - | - | - | - |
| 1777175267 | 2.78° C | 88% | 2147.4 hPa | - | - | - | - |
| 1777174963 | 2.78° C | 88% | 2147.4 hPa | - | - | - | - |
* Rain since midnight (hover to see other rain measurements)
** Current wind speed in m/s (hover to see current wind gust speed)